Flag Weather past 2 weeks in Bad Oeynhausen, North Rhine-Westphalia, Germany

Now
48 °F

Cool.


Feels Like: 46 °F
Forecast: 40 / 51 °F
Wind: 6 mph from Southeast

Location: Bueckeburg

Current Time: Nov 23, 2014 at 1:07:42 AM

Latest Report: Nov 23, 2014 at 12:20 AM


Visibility: N/A

Pressure: 30.09 "Hg

Humidity: 82%

Dew point: 43 °F

Location of Bad OeynhausenLocation

Historic Weather in Bad Oeynhausen — Graph

°F

Bad Oeynhausen temperature yesterday

Maximum temperature yesterday: 48 °F (at 1:20 PM)
Minimum temperature yesterday: 39 °F (at 2:20 AM)
Average temperature yesterday: 44 °F

Past Weeks' High & Low Weather Summary

 TemperatureHumidityPressure
High57 °F (Nov 11, 1:20 PM)100% (Nov 12, 5:20 PM)30.36 "Hg (Nov 12, 5:20 PM)
Low36 °F (Nov 21, 7:20 AM)63% (Nov 8, 12:20 PM)29.50 "Hg (Nov 16, 11:20 AM)
Average47 °F85%29.89 "Hg
* Reported Nov 7 11:20 PM — Nov 22 11:20 PM, Bad Oeynhausen, Weather by CustomWeather, © 2014

Note: Actual official high and low records may vary slightly from our data, if they occured in-between our weather recording intervals... More about our weather records

Advertising

Bad Oeynhausen weather history for previous 24 hours

 ConditionsComfort  
Time TempWeatherWind HumidityBarometerVisibility
11:20 PM
Nov 22
46 °FCool.5 mph87%30.09 "HgN/A
10:20 PM46 °FCool.12 mph87%30.09 "HgN/A
9:20 PM41 °FQuite cool.3 mph93%30.09 "Hg6 mi
8:20 PM45 °FQuite cool.7 mph87%30.09 "HgN/A
7:20 PM45 °FQuite cool.9 mph87%30.09 "HgN/A
6:20 PM46 °FCool.9 mph82%30.09 "HgN/A
5:20 PM46 °FCool.6 mph76%30.09 "HgN/A
4:20 PM48 °FCool.7 mph71%30.09 "HgN/A
3:20 PM48 °FCool.5 mph71%30.09 "HgN/A
2:20 PM48 °FCool.6 mph71%30.09 "HgN/A
1:20 PM48 °FCool.7 mph66%30.09 "HgN/A
12:20 PM46 °FCool.8 mph71%30.12 "HgN/A
11:20 AM45 °FQuite cool.6 mph71%30.12 "HgN/A
10:20 AM43 °FQuite cool.7 mph76%30.12 "HgN/A
9:20 AM41 °FQuite cool.7 mph81%30.12 "HgN/A
8:20 AM41 °FQuite cool.5 mph76%30.12 "HgN/A
7:20 AM41 °FQuite cool.7 mph81%30.12 "HgN/A
6:20 AM41 °FQuite cool.5 mph81%30.12 "HgN/A
5:20 AM41 °FPassing clouds.10 mph81%30.12 "HgN/A
4:20 AM41 °FPassing clouds.9 mph81%30.12 "HgN/A
3:20 AM39 °FPassing clouds.5 mph81%30.15 "HgN/A
2:20 AM39 °FPassing clouds.2 mph87%30.15 "HgN/A
1:20 AM41 °FPassing clouds.2 mph81%30.18 "HgN/A
Weather by CustomWeather, © 2014

See weather overviewHow to use our weather pages